Theta_e
353 357 357 357 351 350 349 344 342 343 344 345 345 345 346 343 349 356 354 355 353 341 340 339 344 346 347 346 345 347 346 346 345 344 343 341 338 331 329 334 338 338 339 340 339 338 337 338 339
349 348 348 342 352 353 347 341 342 345 344 345 346 346 347 350 351 353 355 354 353 342 340 337 342 345 346 345 345 345 346 346 346 345 344 342 341 337 330 335 336 335 338 341 341 340 339 339 338
359 350 342 347 350 355 354 344 343 343 343 342 347 347 346 349 352 351 354 357 355 351 341 335 340 343 344 344 344 344 345 346 345 344 343 342 341 341 331 333 331 333 340 342 340 341 341 341 339
357 354 344 350 352 347 348 344 341 344 341 339 338 341 348 351 351 354 357 356 334 351 339 333 336 341 344 344 343 343 343 343 344 343 341 339 338 340 333 330 334 339 340 342 343 343 342 340 340
356 341 345 350 348 347 346 344 345 344 340 342 338 336 343 350 348 355 355 357 356 354 337 332 332 338 343 345 343 342 342 341 342 342 340 337 337 337 333 333 337 337 339 341 343 344 342 336 338
342 343 350 351 346 342 341 344 347 347 345 341 340 336 350 351 352 352 352 353 355 352 350 346 333 334 342 344 343 342 340 338 338 339 338 337 335 334 333 338 337 339 340 342 343 344 342 340 337
338 347 351 349 346 343 342 341 345 345 345 341 342 345 351 352 351 351 353 351 355 354 353 351 342 333 339 341 341 338 336 336 335 336 336 336 333 333 336 337 338 339 339 341 343 343 342 341 341
335 343 350 350 349 345 342 340 345 345 344 343 341 344 347 353 352 352 354 353 353 355 354 351 345 336 335 338 337 334 334 333 334 335 335 335 332 334 337 337 337 338 340 341 343 343 342 340 338
332 342 348 347 343 343 342 342 343 342 343 342 348 337 350 353 352 352 356 357 355 356 353 352 349 341 335 333 333 334 335 333 334 334 334 333 334 336 339 340 339 338 339 342 343 343 342 340 339
332 338 344 341 341 343 341 341 339 339 336 335 350 355 355 354 353 355 355 357 356 355 352 350 349 348 343 338 336 338 339 337 335 334 334 334 334 340 346 344 341 340 340 341 342 342 343 341 340
331 343 339 338 339 341 340 342 340 340 340 335 346 355 354 354 356 348 349 356 357 356 351 351 350 348 349 349 349 345 342 341 340 338 337 337 340 344 344 344 345 341 341 339 342 340 341 341 342
328 333 341 342 341 342 337 338 341 342 342 339 352 354 353 353 353 354 354 348 352 350 349 347 349 349 348 347 348 349 346 344 342 341 340 337 338 338 338 340 344 344 341 338 341 341 341 342 347
329 333 335 339 337 338 337 339 343 343 341 338 351 355 354 354 353 354 352 351 351 347 347 349 349 348 347 346 347 342 344 345 344 343 342 341 341 338 337 339 340 344 341 344 340 345 343 344 347
332 332 332 337 338 337 337 338 336 343 344 343 352 354 354 353 350 352 350 351 352 351 353 351 348 340 340 343 345 342 335 343 342 340 337 342 342 341 338 340 338 342 341 342 340 344 346 347 347
333 332 331 334 336 338 337 338 336 336 346 347 351 353 354 351 349 349 350 349 349 349 350 349 342 337 336 338 335 342 344 345 344 342 327 335 342 339 341 340 337 339 341 339 340 342 346 345 345
330 332 334 336 337 338 336 335 339 338 339 339 351 352 353 350 348 348 349 348 348 344 340 333 334 333 334 334 338 342 347 346 345 339 339 336 341 342 341 341 340 339 339 340 339 341 344 344 344
332 333 340 341 337 336 337 337 341 340 338 343 344 342 351 349 347 347 349 350 350 351 348 348 343 342 338 339 339 339 337 340 345 343 345 341 340 340 339 338 340 340 339 338 337 339 342 343 344
334 339 342 342 339 336 337 337 338 337 337 343 339 339 337 342 347 348 350 351 352 352 351 352 353 353 353 348 345 344 340 339 342 344 344 343 343 340 340 338 339 341 339 337 336 338 341 341 342
332 334 341 339 339 337 338 336 343 338 339 343 341 336 333 337 345 349 350 351 350 352 351 352 352 352 351 349 348 346 343 342 342 343 342 342 340 340 340 338 337 339 340 340 337 336 340 338 343
332 331 333 337 338 336 335 334 336 339 336 333 339 337 338 339 341 350 348 352 351 352 352 353 352 350 349 349 348 347 345 343 343 343 342 343 342 340 339 339 338 339 341 340 339 336 339 340 341
328 329 331 333 333 333 335 334 338 339 334 334 340 339 339 341 345 349 335 334 349 353 354 354 351 350 350 348 348 346 344 343 340 340 337 335 337 337 338 339 338 338 340 341 341 339 336 340 342
324 328 329 332 331 330 330 328 340 338 335 337 335 334 337 345 353 349 338 344 350 355 354 350 352 349 349 348 345 342 341 341 338 335 335 336 335 336 337 338 338 337 338 342 341 340 337 338 339
325 326 327 332 329 328 329 327 341 338 338 337 335 337 334 339 352 355 355 354 357 355 353 355 350 349 347 344 341 340 339 335 338 337 338 338 337 335 338 338 338 336 339 338 340 339 338 339 339
327 326 326 331 327 326 327 330 335 338 338 338 336 336 336 348 356 356 355 354 355 354 354 349 347 346 342 342 341 336 337 336 336 337 338 338 337 336 336 337 337 335 337 337 339 339 338 338 338
327 326 325 329 329 328 337 336 337 336 337 338 335 337 349 356 355 351 347 353 352 349 347 348 347 343 341 342 339 339 337 336 338 337 339 339 338 338 337 337 338 336 335 337 338 338 338 337 338
327 324 325 330 331 333 334 336 338 339 336 338 349 356 356 354 350 342 349 352 348 347 346 345 345 339 341 341 340 338 336 337 339 338 338 338 337 337 337 337 338 338 336 336 338 339 339 339 339
325 328 325 326 328 327 332 336 342 338 337 341 353 355 352 347 342 350 348 350 348 346 345 346 345 336 340 341 341 337 335 337 339 338 338 337 338 338 338 337 337 337 336 336 337 339 340 340 339
325 327 327 325 328 329 330 346 345 341 338 339 344 354 349 350 350 345 347 347 346 346 345 345 338 334 340 340 340 337 335 336 335 335 338 339 339 339 339 339 339 338 337 337 337 338 339 339 339
329 327 326 325 326 325 332 341 339 339 339 339 336 345 349 348 342 345 346 346 346 346 345 342 341 337 340 340 340 338 336 335 334 334 334 337 338 338 340 338 338 338 339 338 337 338 339 339 339
328 327 325 324 327 331 332 345 337 337 339 337 337 336 346 347 346 346 345 345 346 343 344 345 343 343 339 340 338 338 334 335 336 334 334 334 336 337 338 340 338 337 338 338 338 338 337 338 337
Wind_Speed
12 15 15 8 3 3 2 14 15 12 16 36 36 24 20 16 6 8 24 21 20 25 21 21 22 22 20 17 16 16 15 14 13 11 11 11 11 10 10 12 11 10 10 10 10 9 9 7 7
25 18 3 4 4 4 3 14 12 16 23 37 32 25 19 16 21 21 24 22 19 18 18 22 22 21 19 17 14 14 13 13 12 10 9 9 9 9 9 9 9 8 8 8 8 7 6 7 7
20 19 12 4 2 6 6 14 9 29 23 21 17 25 14 10 12 12 19 19 18 19 20 21 22 21 19 17 15 14 13 13 11 10 9 8 7 8 8 8 6 6 6 7 7 7 5 6 7
11 10 6 1 2 8 11 18 12 26 29 18 17 6 7 13 7 23 27 20 14 13 22 21 22 20 18 16 14 14 14 13 11 10 9 8 7 7 6 7 6 5 6 5 7 6 5 6 8
1 5 3 2 4 9 19 28 40 29 26 15 18 1 2 16 15 21 18 19 27 18 18 16 18 18 17 16 14 14 14 13 11 10 9 8 8 7 7 6 6 4 5 6 6 7 5 7 9
2 5 5 4 1 10 8 39 25 29 28 10 7 7 2 16 16 17 13 15 14 17 17 11 12 16 17 15 14 13 13 12 12 10 9 9 8 7 7 7 5 5 4 6 6 7 6 7 9
3 5 2 6 12 17 8 16 29 28 23 12 13 7 7 14 15 16 14 14 13 16 14 11 11 16 17 15 14 13 13 12 12 11 10 9 8 7 6 7 6 5 5 5 7 6 6 7 8
8 5 5 12 6 7 20 7 32 30 16 23 16 5 3 24 20 19 17 16 15 12 10 9 11 14 17 17 15 13 13 12 11 11 10 9 8 8 7 6 5 5 5 5 6 6 6 7 7
13 4 4 5 5 8 22 5 8 10 26 8 15 14 21 25 24 23 23 21 14 12 7 6 8 14 15 16 16 14 14 13 13 11 10 9 9 6 6 5 5 5 5 6 7 6 6 6 6
5 4 11 9 9 12 21 23 15 6 9 16 18 20 29 27 24 26 26 21 19 13 9 7 6 12 14 15 15 14 13 14 14 12 12 10 6 7 7 6 6 6 5 6 7 6 7 7 6
10 6 7 11 22 28 22 16 12 14 3 17 31 36 32 26 21 14 21 24 19 14 12 10 9 5 8 11 11 12 12 13 12 11 10 11 12 8 9 7 7 6 7 7 9 8 7 7 7
7 20 18 20 22 15 8 18 12 12 8 9 40 38 34 31 23 20 24 19 21 18 14 11 9 10 8 11 13 13 13 14 13 14 16 16 13 9 10 11 10 9 7 8 10 9 8 8 8
10 9 20 20 20 7 15 10 11 11 14 21 35 34 31 31 22 25 18 14 17 14 14 12 11 10 11 14 11 8 13 12 13 17 17 19 20 22 17 12 15 14 10 9 9 10 9 12 12
19 19 13 11 16 13 4 0 4 16 22 27 34 33 30 31 27 27 21 22 21 17 18 18 13 11 11 9 8 8 13 12 13 18 21 18 20 21 20 16 20 15 13 11 9 11 11 11 10
21 10 9 16 22 11 13 2 4 5 25 30 32 36 32 32 30 29 26 28 25 23 22 19 16 13 11 10 8 9 10 11 13 12 14 19 15 17 22 17 18 20 15 12 11 12 11 11 10
9 8 5 7 18 9 18 7 3 5 6 7 19 34 33 32 32 28 25 23 19 20 19 15 16 14 13 13 12 12 12 13 15 15 13 20 19 18 17 19 20 20 20 15 13 12 13 13 11
6 2 14 19 33 16 4 7 3 14 20 9 5 47 16 31 29 29 27 25 20 15 13 12 12 12 12 12 12 12 13 16 15 16 17 18 19 20 18 19 21 20 21 22 15 14 14 13 13
8 8 5 13 10 8 15 18 9 17 21 4 27 31 25 8 32 32 30 25 21 18 16 12 12 12 11 10 12 13 14 15 19 22 20 15 21 21 20 19 23 22 20 21 22 17 16 15 16
12 10 12 15 20 2 10 14 9 19 23 33 44 47 22 46 21 32 27 27 25 23 22 19 18 16 16 15 15 15 15 16 16 16 20 21 21 21 23 23 21 24 24 23 23 20 18 20 16
11 8 5 10 18 6 13 7 9 6 11 16 37 39 8 42 35 17 16 19 24 23 17 11 8 13 13 13 13 14 17 19 17 18 22 23 21 22 25 23 21 24 26 24 22 24 20 21 18
9 6 7 7 7 6 5 6 3 2 8 8 22 29 10 29 13 27 6 14 22 22 15 5 2 6 8 9 10 12 15 17 17 18 21 23 25 27 28 25 21 25 29 25 24 25 23 22 20
8 9 11 8 2 2 2 5 6 3 3 1 7 9 12 22 49 33 18 19 24 19 6 4 5 4 4 5 8 12 13 14 16 18 18 19 19 21 22 28 26 25 27 27 24 24 26 24 22
9 9 8 5 6 6 9 3 3 6 3 6 7 9 8 5 24 32 25 19 19 10 10 11 6 2 2 6 9 10 13 14 12 13 16 16 15 17 19 21 25 22 27 28 25 23 24 25 23
7 6 7 2 4 4 7 3 4 5 7 4 7 14 11 9 30 26 20 20 16 13 14 9 4 4 6 7 6 8 10 13 13 13 15 12 11 15 17 16 20 23 24 25 26 25 25 26 22
6 1 4 4 3 7 4 3 2 4 3 5 13 22 21 32 27 25 24 21 20 17 10 7 3 8 8 8 10 12 14 13 10 8 9 3 7 9 14 15 19 21 23 23 25 27 26 24 22
7 9 6 5 3 5 6 4 5 19 41 20 25 33 30 26 25 25 22 20 21 15 9 2 4 8 5 5 10 12 13 12 12 8 6 5 3 1 6 11 15 19 20 22 24 26 27 25 24
8 3 10 4 4 4 4 2 8 10 14 4 28 32 28 25 22 23 17 19 14 12 8 3 4 5 6 5 8 12 12 12 13 13 10 8 6 3 1 6 11 15 17 20 20 21 19 22 23
8 5 2 2 3 6 4 3 5 8 14 14 9 24 28 29 28 21 17 14 13 11 8 3 5 5 5 4 7 10 9 10 14 16 14 10 10 6 3 0 5 10 13 16 20 21 20 20 23
2 3 3 3 4 5 1 5 9 14 9 8 4 7 37 32 24 20 25 16 10 8 5 1 4 4 4 1 5 8 8 8 10 12 14 14 11 10 8 6 4 4 10 14 16 16 17 16 16
7 9 9 5 8 2 5 2 8 2 1 4 5 3 12 31 28 27 22 18 11 6 8 9 3 2 3 3 4 5 3 8 8 6 11 10 10 9 10 7 6 6 8 13 14 17 15 14 13
Wind_Direction
10 16 342 339 26 38 319 72 80 81 77 74 73 74 71 56 61 122 154 167 156 157 154 153 153 148 145 139 134 135 135 131 128 122 115 118 119 113 123 121 116 111 114 121 128 141 142 132 121
50 31 66 30 59 20 5 87 73 71 83 81 65 77 71 75 90 112 135 153 149 153 156 159 158 150 148 142 137 136 140 142 136 134 127 124 126 122 131 126 123 119 122 128 134 145 154 138 127
65 29 62 29 42 348 310 103 109 70 66 67 71 51 20 112 105 119 145 146 151 163 162 164 158 155 154 148 144 143 145 149 149 148 141 132 135 135 139 137 126 132 129 140 145 160 175 166 151
80 79 53 350 311 284 264 298 139 84 33 59 104 60 47 52 88 132 145 152 163 160 158 166 164 162 157 151 150 149 152 158 159 156 152 147 144 147 144 145 139 145 140 155 148 155 175 179 168
123 109 84 43 342 274 283 270 91 90 79 23 355 197 343 89 103 132 137 139 151 148 146 158 168 167 163 158 156 157 161 164 166 166 165 160 157 158 159 159 146 145 153 158 157 157 165 179 168
301 69 14 354 252 248 295 106 108 112 138 160 94 147 69 120 123 137 153 150 163 164 150 151 170 177 173 167 164 164 169 170 173 175 179 173 168 172 171 168 160 158 163 163 166 163 164 182 185
139 77 6 300 275 303 238 81 120 137 131 129 160 160 149 147 139 150 162 170 158 166 165 162 173 186 185 181 179 177 177 179 181 183 185 184 182 181 182 179 177 173 172 187 170 176 172 184 192
247 105 162 228 243 279 284 59 109 107 134 104 130 123 218 152 145 164 161 157 157 171 175 164 180 191 192 188 187 186 183 185 191 190 191 191 195 194 186 198 194 186 187 201 189 190 176 181 191
263 107 204 262 201 239 268 94 47 111 148 155 130 121 159 153 161 168 139 148 152 161 168 161 193 188 195 193 198 192 187 190 194 198 200 204 202 201 208 199 210 207 187 205 207 197 192 189 184
162 192 201 223 212 264 271 114 68 249 121 119 145 128 151 165 176 178 168 156 157 156 165 166 190 191 200 199 205 206 195 195 199 199 201 206 202 206 226 226 223 208 211 208 215 207 207 204 186
225 204 223 232 242 235 265 102 115 159 297 176 157 148 159 165 171 167 169 184 166 177 180 189 179 204 204 209 207 214 214 207 207 213 210 210 203 211 240 237 234 229 221 216 221 214 213 210 182
245 250 227 270 230 243 244 131 171 158 177 175 159 155 160 165 172 173 168 169 177 192 184 183 193 216 215 229 213 217 213 225 221 220 211 209 218 231 234 249 249 240 217 224 219 214 211 201 205
259 256 275 242 273 306 319 101 118 127 136 146 158 159 165 174 171 179 172 166 157 164 177 172 184 187 200 214 207 233 222 221 223 231 228 229 244 241 238 254 245 238 223 217 230 211 208 204 211
298 295 302 279 286 326 41 65 86 135 146 147 165 167 175 174 169 174 171 179 172 165 174 174 190 198 205 211 215 212 208 223 221 243 246 249 253 252 246 264 229 225 226 214 226 225 219 214 215
304 276 301 12 354 324 347 141 145 134 148 168 183 171 180 173 172 176 174 174 172 179 183 195 201 195 200 217 221 220 212 222 235 240 250 246 237 253 251 248 226 227 234 225 223 218 220 218 215
312 310 24 321 348 307 17 269 258 75 67 320 235 176 175 176 174 173 180 184 189 188 192 183 186 186 190 196 207 214 222 233 247 259 250 255 239 246 252 251 239 226 226 225 224 219 226 216 217
269 309 65 360 304 301 99 294 202 152 209 84 178 345 186 171 172 177 183 185 186 190 200 201 196 195 203 210 219 226 228 219 235 245 253 244 242 245 260 259 242 226 226 231 230 224 220 217 209
271 115 127 212 276 253 291 279 207 195 174 139 123 324 4 314 182 181 178 179 180 186 194 198 202 221 231 235 240 245 241 237 234 238 247 246 247 247 248 267 246 227 229 232 226 227 216 213 222
258 274 175 228 242 104 254 265 212 173 178 127 131 146 243 287 228 181 176 174 183 192 196 204 216 226 239 240 248 255 262 263 252 244 239 248 248 247 248 246 247 232 229 225 229 228 218 211 217
263 287 260 203 222 164 263 240 182 180 209 167 126 162 232 272 244 147 76 165 188 191 207 202 214 225 240 244 257 269 270 273 269 262 243 250 254 247 249 248 241 230 224 218 218 219 215 208 216
280 262 282 267 298 224 222 266 209 315 7 102 152 148 147 276 221 148 223 204 210 194 192 218 252 234 255 262 273 279 278 275 278 273 265 262 257 257 249 248 245 228 224 221 220 218 218 213 214
270 269 274 259 266 259 22 272 15 31 272 68 69 55 317 51 155 154 188 174 193 176 169 185 193 199 274 319 309 308 302 300 293 281 279 270 255 249 246 246 244 230 223 219 219 218 218 218 217
241 271 291 2 16 28 308 6 302 131 257 208 142 168 229 97 135 131 136 156 151 152 175 173 169 96 359 345 321 320 314 308 305 303 295 290 255 237 236 243 234 228 222 223 221 222 218 220 218
261 267 320 17 56 334 259 232 222 198 191 233 140 176 197 149 129 126 133 130 144 153 156 154 138 38 5 354 351 346 344 331 315 307 307 272 254 238 235 240 233 227 223 225 223 223 225 222 220
191 28 340 337 351 235 281 0 272 302 359 178 157 188 162 129 129 134 130 133 138 128 124 128 98 37 21 12 15 5 348 351 342 328 349 303 276 253 237 235 231 225 220 219 222 226 222 222 224
217 159 164 241 237 255 358 280 53 67 302 233 143 134 136 143 142 138 132 148 150 145 147 165 39 27 44 23 11 5 15 19 16 15 12 4 358 253 222 224 228 229 224 217 221 223 223 218 216
259 217 203 218 282 338 232 222 29 11 338 97 134 134 142 141 140 140 142 154 148 127 134 178 27 43 62 57 12 23 32 40 52 51 47 54 62 56 224 230 232 230 218 218 221 218 217 214 212
169 219 337 343 251 271 275 35 191 22 294 293 101 143 143 147 149 153 141 146 138 147 168 237 41 54 71 31 21 32 53 63 57 48 60 64 59 54 65 139 249 223 216 216 217 213 216 211 211
166 225 258 163 164 193 123 265 188 185 241 294 31 34 153 152 150 152 149 142 145 157 163 89 84 71 110 84 37 32 61 71 58 50 49 46 48 50 63 85 108 180 201 203 211 210 203 198 207
180 197 188 147 279 211 145 357 83 156 266 346 344 57 298 155 153 149 145 151 162 158 134 167 217 178 154 129 52 36 56 40 30 28 32 44 47 47 62 77 90 100 147 163 168 181 191 202 183